Other Surface Observations
Issued by NWS

Home | Current Version | Previous Version | Text Only | Print | Product List | Glossary On
Versions: 1 2 3 4 5 6 7 8 9 10 11 12 13 14 15 16 17 18 19 20 21 22 23 24 25 26 27 28 29 30 31 32 33 34 35 36 37 38 39 40 41 42 43 44 45 46 47 48 49 50
000
SXUS52 KTAE 031318
OSOTAE
OSOTAE
North Florida/South Alabama/Southwest Georgia Weather Roundup
National Weather Service Tallahassee Florida
800 AM EST TUE MAR 03 2015

Note: "fair" indicates few or no clouds below 12,000 feet with no
significant weather and/or obstructions to visibility.

!FLZ017-115-028-034-025-031400
...North Florida...

CITY           SKY/WX    TMP DP  RH WIND       PRES   REMARKS
TALLAHASSEE    FOG       59  56  89 CALM      30.22R VSB 1/4
APALACHICOLA   FOG       61  58  90 E5        30.20R VSB 1/4
PERRY          CLOUDY    58  58 100 CALM      30.23R
CROSS CITY       N/A     64  62  93 MISG      30.22R
JACKSONVILLE   PTSUNNY   62  62 100 CALM      30.23R
$$

!FLZ112-006-005-002-011-031400
...Florida Panhandle...

CITY           SKY/WX    TMP DP  RH WIND       PRES   REMARKS
MARIANNA       FOG       55  55 100 CALM      30.19S VSB 1/4
BONIFAY        FOG       54  54 100 CALM      30.21R VSB<1/4
PANAMA CITY NW FOG       55  55 100 CALM      30.19R VSB<1/4
TYNDALL AFB    FOG       58  58 100 E3        30.20R VSB 0
TYND DRONE APT FOG       58  59 100 SE5       30.19R VSB 3/8
DE FUNIAK SPR  FOG       57  57 100 CALM      30.20R VSB<1/4
EGLIN AFB      FOG       59  59  99 E2        30.18S VSB 1/4
DESTIN         FOG       59  59 100 CALM      30.19R VSB 1/4
HURLBURT       FOG       61  57  88 E3        30.18R VSB 1/4
CRESTVIEW      FOG       58  58 100 SE3       30.20S VSB 1/4
PENSACOLA      FOG       61  61 100 E3        30.17S VSB 1/4
$$

!ALZ063-066-031400
...South Alabama...

CITY           SKY/WX    TMP DP  RH WIND       PRES   REMARKS
DOTHAN         FOG       59  59 100 SE3       30.24R VSB 1/4
OZARK CAIRNS   FOG       59  57  94 SE3       30.19S VSB 1/4
FT RUCKER HELI FOG       56  56 100 CALM      30.19R VSB 1/2
RUCKER HELI 3  FOG       59  59 100 SE6       30.21R VSB 1/16
RUCKER HELI 2  FOG       57  57 100 E3        30.19R VSB 1/4
FLORALA APT    FOG       58  57  97 CALM      30.20R VSB 1/4
ANDALUSIA      FOG       62  58  86 SE6       30.18R VSB<1/4
TROY           CLOUDY    61  60  97 CALM      30.19R FOG
EUFALA         FAIR      63  61  94 CALM      30.19R FOG
MOBILE         FOG       60  60 100 SE6       30.17R VSB 1/2
$$

!GAZ120>161-031400
...Southwest and South Central Georgia...

CITY           SKY/WX    TMP DP  RH WIND       PRES   REMARKS
THOMASVILLE    FOG       55  55 100 CALM      30.24R VSB 1/2
BAINBRIDGE     FOG       59  59 100 CALM      30.22S VSB 1/4
MOODY AFB      CLOUDY    58  58  98 N2        30.22R
VALDOSTA       MOSUNNY   58  56  93 CALM      30.23R
MOULTRIE       FOG       55  55 100 CALM      30.24R VSB 1/2
BLAKELY        FOG       59  59 100 CALM      30.22R VSB<1/4
ALBANY         CLOUDY    57  57 100 CALM      30.24R FOG
TIFTON         FOG       56  56 100 CALM      30.23S VSB 1
FITZGERALD     CLOUDY    61  58  91 CALM      30.26R
CORDELE        CLOUDY    60  58  94 CALM      30.24R FOG
AMERICUS       CLOUDY    59  59 100 CALM      30.24R FOG
HOMERVILLE     FOG       59  59 100 CALM      30.25R VSB 3/4
$$

!GMZ750-755-770-775-031400
...Coastal and Buoy Obs...

STATION/POSITION TIME  TEMP    WIND        PRES    VSBY  WAVE
                       AIR SEA DIR/SP/G                  HT/PER
                 (UTC) (F)     (DEG/KT/KT) (MB)    (MI)  (FT/S)
KEATON BEACH     1300   60      70/  2/  2 1023.5R
CEDAR KEY        1257   62     130/  4/  4 1023.7R
C TOWER          1300   59     100/  5/  5 1022.8R
APALACHICOLA BUO 1300   63 67   90/  8/ 10 1022.7R         1/ 7
PANAMA CITY BUOY 1231   64 67   90/ 10/ 10 1022.6R         1/ 7
MOBILE BUOY      1249   70 71  140/ 10/ 12 1021.3R         2/ 7
ORANGE BCH AL BU 1300   65 64  150/  8/ 10 1020.8R         1/ 6
$$



USA.gov is the U.S. government's official web portal to all federal, state and local government web resources and services.